Location: Fresnoy
(49.7371°N, 2.7756°E)
Time: 13:45:02
(UTC+00:00)

Cosmos 923 Rocket - Pass Details

Date: 13 December 2025
Orbit: 753 x 781 km, 74.0° (Epoch: 22 April)

Event Time Altitude Azimuth Distance (km) Brightness Sun altitude
Rises 17:21:14 0° 340° (NNW) 3,229 7.3 -14.1°
Reaches altitude 10° 17:23:46 10° 348° (NNW) 2,297 6.4 -14.5°
Maximum altitude 17:28:39 39° 57° (ENE) 1,119 4.4 -15.2°
Drops below altitude 10° 17:33:29 10° 127° (SE) 2,276 6.1 -16.0°
Enters shadow 17:34:26 - 130° (SE) 2,625 6.5 -16.1°
